Regional Weather Roundup
Issued by NWS

Home | Current Version | Previous Version | Text Only | Print | Product List | Glossary On
Versions: 1 2 3 4 5 6 7 8 9 10 11 12 13 14 15 16 17 18 19 20 21 22 23 24 25 26 27 28 29 30 31 32 33 34 35 36 37 38 39 40 41 42 43 44 45 46 47 48 49 50
000
ASUS43 KMPX 041410
RWRMN
WEATHER ROUNDUP FOR MINNESOTA
NATIONAL WEATHER SERVICE TWIN CITIES/CHANHASSEN MN
900 AM CDT MON MAY 04 2015


NOTE: "FAIR" INDICATES FEW OR NO CLOUDS BELOW 12,000 FEET WITH NO
SIGNIFICANT WEATHER AND/OR OBSTRUCTIONS TO VISIBILITY. N/A MEANS
CURRENT SKY AND/OR WEATHER CONDITIONS ARE NOT AVAILABLE.

MNZ060>063-068>070-041500-
   Twin Cities Metro

CITY           SKY/WX    TMP DP  RH WIND       PRES   REMARKS
TWIN CITIES    MOSUNNY   58  35  42 NE14      30.15R
ST PAUL        SUNNY     57  36  45 N8G20     30.16R
CRYSTAL        SUNNY     59  37  44 NE8       30.14R
LAKEVILLE      SUNNY     55  37  50 N15       30.14S
EDEN PRAIRIE   SUNNY     57  36  45 NE9       30.14R
SOUTH ST PAUL  SUNNY     58  36  42 N8        30.15R
LAKE ELMO      FAIR      55  39  54 NE6       30.16R
$$
MNZ001>005-007-008-013>017-022>024-027-028-041500-
   Northwest Minnesota

CITY           SKY/WX    TMP DP  RH WIND       PRES   REMARKS
BEMIDJI        SUNNY     50  33  52 NE5       30.21R
HALLOCK        SUNNY     52  39  62 S5        30.20S
ROSEAU         SUNNY     48  39  71 CALM      30.21R
WARROAD        SUNNY     46  39  76 CALM      30.21R
THIEF RVR FALL SUNNY     52  37  58 SE6       30.22R
CROOKSTON      SUNNY     55  36  47 E7        30.22R
FOSSTON        SUNNY     52  36  54 E5        30.22R
DETROIT LAKES  MOSUNNY   52  37  58 E3        30.21S
MOORHEAD       PTSUNNY   52  34  50 E3        30.21S
PARK RAPIDS    MOSUNNY   54  36  50 CALM      30.20R
MAHNOMEN       FAIR      53  37  54 SE5       30.21S
$$
MNZ006-009>011-018-025>026-041500-
   North Central Minnesota

CITY           SKY/WX    TMP DP  RH WIND       PRES   REMARKS
BAUDETTE       SUNNY     48  37  65 NW6       30.20R
FLAG ISLAND    SUNNY     43  36  75 NW3       30.20R
INTL FALLS     SUNNY     48  36  63 NW8       30.18R
WASKISH        SUNNY     50  37  62 CALM      30.21R
BIG FORK       SUNNY     50  37  62 N3        30.20R
LONGVILLE      SUNNY     54  36  50 NW3       30.20R
GRAND RAPIDS   SUNNY     52  36  54 NW9       30.20R
CRANE LAKE     SUNNY     46  37  71 N3        30.19R
ORR            SUNNY     46  36  66 NW6       30.16R
COOK           SUNNY     48  37  66 W8        30.18R
WALKER         FAIR      50  35  55 N5        30.21S
$$
MNZ012-019>021-037-041500-
   Northeast Minnesota

CITY           SKY/WX    TMP DP  RH WIND       PRES   REMARKS
DULUTH         SUNNY     54  36  50 NW13      30.15R
ELY            SUNNY     48  37  66 NW5       30.15R
HIBBING        SUNNY     52  35  52 N12       30.17R
EVELETH        SUNNY     50  34  53 N6        30.18R
DULUTH HARBOR  SUNNY     55  39  54 CALM      30.17R
TWO HARBORS    SUNNY     57  41  54 CALM      30.13R
SILVER BAY     SUNNY     57  36  44 NW8       30.12R
GRAND MARAIS     N/A     47  37  68 SW8       30.10R
G MARAIS ARPRT SUNNY     52  34  50 NW13G22   30.09R
$$
MNZ029>031-032-039>041-046>048-054>057-064-041500-
   West Central Minnesota

CITY           SKY/WX    TMP DP  RH WIND       PRES   REMARKS
FERGUS FALLS   PTSUNNY   55  37  50 CALM      30.20S
WHEATON        MOSUNNY   52  34  50 CALM      30.22R
MORRIS         MOSUNNY   57  36  44 E8        30.18R
ALEXANDRIA     MOSUNNY   55  35  47 E10       30.20R
ELBOW LAKE     FAIR      56  39  52 E7        30.19R
WADENA         MOSUNNY   52  37  58 NE3       30.20R
GLENWOOD       SUNNY     55  36  47 NE10      30.19R
APPLETON       SUNNY     55  34  44 NE10      30.17S
BENSON         MOSUNNY   57  34  41 E7        30.17S
ORTONVILLE     SUNNY     52  36  54 N6        30.18S
MADISON        MOSUNNY   55  34  44 NE5       30.17R
WILLMAR        FAIR      59  36  41 E9        30.18R
$$
MNZ033>034-036-042>043-049>051-058-059-041500-
   Central Minnesota

CITY           SKY/WX    TMP DP  RH WIND       PRES   REMARKS
ST CLOUD       SUNNY     55  38  52 N5        30.17R
SAUK CENTRE    FAIR      55  36  47 NE12      30.19R
PAYNESVILLE    SUNNY     53  35  50 N10       30.18S
AITKIN         SUNNY     55  37  50 NW5       30.18R
PINE RIVER     MOSUNNY   54  39  58 NW3       30.22S
BRAINERD       MOSUNNY   53  39  59 NE5       30.20R
STAPLES        MOSUNNY   50  37  62 CALM      30.20R
LONG PRAIRIE   FAIR      54  36  50 N5        30.20R
LITTLE FALLS   SUNNY     54  36  50 N3        30.19R
LITCHFIELD     SUNNY     57  36  44 NE9       30.17R
BUFFALO        SUNNY     55  37  50 N9        30.17R
MAPLE LAKE     SUNNY     56  41  56 NE7       30.17S
$$
MNZ037-044-045-052-053-041500-
   East Central Minnesota

CITY           SKY/WX    TMP DP  RH WIND       PRES   REMARKS
PRINCETON      SUNNY     57  37  47 N10       30.17R
MORA           SUNNY     54  34  47 N3        30.19S
CAMBRIDGE      SUNNY     57  39  51 N7        30.15R
RUSH CITY      SUNNY     55  38  52 N6        30.17S
MOOSE LAKE     SUNNY     54  37  54 NW8       30.16R
HINCKLEY       FAIR      55  37  50 N5        30.18R
CLOQUET        SUNNY     54  36  50 NW10      30.16R
MCGREGOR       SUNNY     52  37  58 NW7       30.19S
$$
MNZ071>073-080-081-089-090-097-098-041500-
   Southwest Minnesota

CITY           SKY/WX    TMP DP  RH WIND       PRES   REMARKS
MONTEVIDEO     MOSUNNY   57  36  44 E9        30.18R
GRANITE FALLS  MOSUNNY   56  34  44 NE8       30.18R
CANBY          MOSUNNY   55  32  42 N3        30.19R
MARSHALL       MOSUNNY   55  30  38 E7        30.17R
REDWOOD FALLS  SUNNY     60  32  34 NE8       30.16R
OLIVIA         MOSUNNY   57  30  35 NE12      30.15R
PIPESTONE      MOSUNNY   55  28  35 NE13G18   30.15R
WINDOM         MOSUNNY   59  32  36 NE12G18   30.15R
WORTHINGTON    MOSUNNY   55  32  41 NE17      30.16R
JACKSON        MOSUNNY   59  30  33 NE18G24   30.14R
TRACY          SUNNY     55  32  42 N5        30.17R
SLAYTON        MOSUNNY   56  30  38 NE8       30.17R
$$
MNZ065>067-074>077-082>085-091>093-041500-
   South Central Minnesota

CITY           SKY/WX    TMP DP  RH WIND       PRES   REMARKS
MANKATO          N/A    N/A N/A N/A MISG        N/A
NEW ULM        SUNNY     57  30  35 NE10G18   30.13S
ST JAMES       MOSUNNY   61  28  29 NE13      30.15R
FAIRMONT       MOSUNNY   61  34  36 NE17      30.12R
GLENCOE        SUNNY     57  38  49 NE6       30.15S
FARIBAULT      SUNNY     57  39  51 N9        30.14R
OWATONNA       MOSUNNY   57  37  47 NE13G20   30.14R
WASECA         MOSUNNY   55  37  50 NE13      30.14R
ALBERT LEA     SUNNY     57  41  54 NE16      30.12R
$$
MNZ078>079-086>088-094>096-041500-
   Southeast Minnesota

CITY           SKY/WX    TMP DP  RH WIND       PRES   REMARKS
ROCHESTER      SUNNY     57  41  55 NE14      30.14R
RED WING       SUNNY     59  37  44 N7        30.12R
STANTON        SUNNY     57  41  56 NE12      30.12S
DODGE CENTER   MOSUNNY   57  37  47 NE15G21   30.13R
WINONA         SUNNY     59  43  55 N3        30.11R
AUSTIN         SUNNY     57  41  54 NE14G22   30.11R
PRESTON        SUNNY     56  43  61 NE12G17   30.12R
$$
ABBREVIATIONS USED IN REMARKS
   TC - TEMPERATURES IN CELSIUS
  WCI - WIND CHILL INDEX
   HX - HEAT INDEX
  VSB - VISIBILITY
$$


USA.gov is the U.S. government's official web portal to all federal, state and local government web resources and services.